Date String (YYYY-MM-DD hh:mm:ss) UTC,Instrument flags,Ambient pressure (hPa),Sample flow (lpm),Bypass flow (lpm),Sample temperature (°C),Ambient temperature (°C),ASC tube jacket temperature (°C),LED temperature (°C),Box temperature (°C),Sample RH (%),Span deviation,Mass concentration (μg/m³),Mass concentration (μg/m³),Mass concentration (μg/m³)
DateTimeUTC,F1_M11,P_M11,Q1_M11,Q2_M11,T1_M11,T2_M11,T3_M11,T4_M11,T5_M11,U1_M11,ZSPAN_M11,X2_M11,X0_M11,X1_M11
2021-10-11 03:00:00,,0822.3,5.00,0.00,29.3,28.2,00.0,38.6,31.0,09.6,0000.0,0002.63,0003.53,0002.26
2021-10-11 03:01:00,,0822.4,5.01,0.00,29.4,28.2,00.0,38.6,31.0,09.6,0000.0,0002.62,0003.51,0002.26
2021-10-11 03:02:00,,0822.3,4.99,0.00,29.4,28.2,00.0,38.5,31.0,09.6,0000.0,0002.61,0003.48,0002.26
2021-10-11 03:03:00,,0822.4,4.99,0.00,29.4,28.2,00.0,38.5,31.1,09.5,0000.0,0002.60,0003.48,0002.26
2021-10-11 03:04:00,,0822.4,5.01,0.00,29.4,28.2,00.0,38.6,31.0,09.4,0000.0,0002.58,0003.42,0002.26
2021-10-11 03:05:00,,0822.4,4.99,0.00,29.4,28.2,00.0,38.6,31.1,09.4,0000.0,0002.54,0003.33,0002.27
2021-10-11 03:06:00,,0822.4,5.01,0.00,29.4,28.2,00.0,38.6,31.1,09.3,0000.0,0002.53,0003.27,0002.27
2021-10-11 03:07:00,,0822.4,5.00,0.00,29.4,28.3,00.0,38.6,31.1,09.3,0000.0,0002.49,0003.24,0002.26
2021-10-11 03:08:00,,0822.4,5.01,0.00,29.4,28.3,00.0,38.6,31.1,09.3,0000.0,0002.49,0003.30,0002.25
2021-10-11 03:09:00,,0822.4,5.00,0.00,29.4,28.3,00.0,38.6,31.1,09.3,0000.0,0002.43,0003.19,0002.24
2021-10-11 03:10:00,,0822.4,5.00,0.00,29.5,28.3,00.0,38.6,31.1,09.3,0000.0,0002.43,0003.22,0002.24
2021-10-11 03:11:00,,0822.4,5.01,0.00,29.5,28.4,00.0,38.6,31.2,09.4,0000.0,0002.43,0003.21,0002.24
2021-10-11 03:12:00,,0822.3,5.00,0.00,29.5,28.4,00.0,38.6,31.2,09.4,0000.0,0002.45,0003.24,0002.25
2021-10-11 03:13:00,,0822.3,4.99,0.00,29.5,28.4,00.0,38.6,31.2,09.3,0000.0,0002.46,0003.27,0002.25
2021-10-11 03:14:00,,0822.3,5.01,0.00,29.5,28.4,00.0,38.6,31.2,09.3,0000.0,0002.45,0003.26,0002.24
2021-10-11 03:15:00,,0822.4,4.99,0.00,29.5,28.4,00.0,38.6,31.3,09.3,0000.0,0002.45,0003.25,0002.23
2021-10-11 03:16:00,,0822.4,4.99,0.00,29.5,28.5,00.0,38.6,31.2,09.2,0000.0,0002.46,0003.27,0002.23
2021-10-11 03:17:00,,0822.4,5.02,0.00,29.5,28.4,00.0,38.6,31.2,09.2,0000.0,0002.44,0003.24,0002.23
2021-10-11 03:18:00,,0822.4,4.99,0.00,29.5,28.5,00.0,38.6,31.3,09.2,0000.0,0002.43,0003.13,0002.22
2021-10-11 03:19:00,,0822.4,5.01,0.00,29.5,28.5,00.0,38.6,31.3,09.2,0000.0,0002.41,0002.99,0002.23
2021-10-11 03:20:00,,0822.4,5.00,0.00,29.6,28.5,00.0,38.6,31.3,09.2,0000.0,0002.43,0002.94,0002.24
2021-10-11 03:21:00,,0822.4,4.99,0.00,29.6,28.5,00.0,38.6,31.3,09.2,0000.0,0002.43,0002.90,0002.23
2021-10-11 03:22:00,,0822.3,5.00,0.00,29.6,28.5,00.0,38.6,31.2,09.2,0000.0,0002.43,0002.93,0002.23
2021-10-11 03:23:00,,0822.3,5.02,0.00,29.6,28.5,00.0,38.7,31.2,09.3,0000.0,0002.42,0002.92,0002.22
2021-10-11 03:24:00,,0822.3,5.00,0.00,29.6,28.5,00.0,38.7,31.3,09.3,0000.0,0002.42,0002.93,0002.21
2021-10-11 03:25:00,,0822.3,4.99,0.00,29.6,28.5,00.0,38.7,31.3,09.3,0000.0,0002.44,0003.05,0002.21
2021-10-11 03:26:00,,0822.3,5.01,0.00,29.6,28.5,00.0,38.7,31.3,09.3,0000.0,0002.44,0003.05,0002.21
2021-10-11 03:27:00,,0822.3,5.01,0.00,29.6,28.5,00.0,38.7,31.3,09.3,0000.0,0002.47,0003.10,0002.20
2021-10-11 03:28:00,,0822.3,4.99,0.00,29.6,28.5,00.0,38.7,31.3,09.2,0000.0,0002.47,0003.11,0002.20
2021-10-11 03:29:00,,0822.3,5.00,0.00,29.6,28.6,00.0,38.7,31.3,09.2,0000.0,0002.47,0003.09,0002.21
2021-10-11 03:30:00,,0822.3,5.01,0.00,29.6,28.6,00.0,38.7,31.3,09.2,0000.0,0002.46,0003.07,0002.21
2021-10-11 03:31:00,,0822.2,4.99,0.00,29.6,28.6,00.0,38.7,31.3,09.2,0000.0,0002.44,0003.05,0002.21
2021-10-11 03:32:00,,0822.3,4.99,0.00,29.6,28.6,00.0,38.7,31.3,09.2,0000.0,0002.42,0002.95,0002.21
2021-10-11 03:33:00,,0822.3,5.00,0.00,29.6,28.6,00.0,38.7,31.3,09.3,0000.0,0002.40,0002.91,0002.21
2021-10-11 03:34:00,,0822.3,5.02,0.00,29.6,28.5,00.0,38.7,31.2,09.3,0000.0,0002.41,0002.91,0002.21
2021-10-11 03:35:00,,0822.3,5.00,0.00,29.6,28.5,00.0,38.7,31.3,09.3,0000.0,0002.40,0002.88,0002.23
2021-10-11 03:36:00,,0822.3,4.98,0.00,29.6,28.5,00.0,38.7,31.3,09.3,0000.0,0002.39,0002.78,0002.23
2021-10-11 03:37:00,,0822.3,5.00,0.00,29.6,28.5,00.0,38.7,31.3,09.3,0000.0,0002.37,0002.71,0002.22
2021-10-11 03:38:00,,0822.4,4.99,0.00,29.6,28.5,00.0,38.7,31.2,09.3,0000.0,0002.33,0002.67,0002.21
2021-10-11 03:39:00,,0822.3,5.00,0.00,29.6,28.4,00.0,38.7,31.2,09.4,0000.0,0002.35,0002.94,0002.22
2021-10-11 03:40:00,,0822.4,5.01,0.00,29.6,28.4,00.0,38.7,31.2,09.3,0000.0,0002.35,0004.18,0002.23
2021-10-11 03:41:00,,0822.3,4.98,0.00,29.6,28.5,00.0,38.7,31.3,09.4,0000.0,0002.37,0004.22,0002.24
2021-10-11 03:42:00,,0822.3,5.01,0.00,29.6,28.4,00.0,38.7,31.3,09.3,0000.0,0002.37,0004.24,0002.23
2021-10-11 03:43:00,,0822.3,5.01,0.00,29.6,28.5,00.0,38.7,31.3,09.3,0000.0,0002.39,0004.29,0002.23
2021-10-11 03:44:00,,0822.3,4.98,0.00,29.6,28.5,00.0,38.7,31.3,09.3,0000.0,0002.40,0005.10,0002.23
2021-10-11 03:45:00,,0822.3,5.01,0.00,29.6,28.5,00.0,38.7,31.3,09.3,0000.0,0002.42,0005.78,0002.23
2021-10-11 03:46:00,,0822.3,5.01,0.00,29.6,28.4,00.0,38.7,31.2,09.3,0000.0,0002.42,0005.79,0002.22
2021-10-11 03:47:00,,0822.3,5.00,0.00,29.6,28.4,00.0,38.7,31.2,09.3,0000.0,0002.42,0005.79,0002.23
2021-10-11 03:48:00,,0822.3,4.99,0.00,29.6,28.4,00.0,38.7,31.2,09.3,0000.0,0002.46,0005.85,0002.25
2021-10-11 03:49:00,,0822.3,5.00,0.00,29.6,28.5,00.0,38.7,31.3,09.3,0000.0,0002.47,0005.86,0002.25
2021-10-11 03:50:00,,0822.3,5.00,0.00,29.6,28.5,00.0,38.7,31.2,09.3,0000.0,0002.45,0005.56,0002.24
2021-10-11 03:51:00,,0822.3,5.00,0.00,29.6,28.5,00.0,38.7,31.3,09.3,0000.0,0002.46,0004.38,0002.24
2021-10-11 03:52:00,,0822.3,5.01,0.00,29.6,28.5,00.0,38.7,31.3,09.3,0000.0,0002.46,0004.39,0002.24
2021-10-11 03:53:00,,0822.3,4.98,0.00,29.6,28.5,00.0,38.7,31.3,09.3,0000.0,0002.48,0004.43,0002.25
2021-10-11 03:54:00,,0822.3,5.00,0.00,29.6,28.5,00.0,38.8,31.3,09.3,0000.0,0002.47,0004.43,0002.24
2021-10-11 03:55:00,,0822.4,5.00,0.00,29.6,28.5,00.0,38.7,31.3,09.3,0000.0,0002.45,0003.62,0002.24
2021-10-11 03:56:00,,0822.4,5.00,0.00,29.6,28.5,00.0,38.7,31.3,09.3,0000.0,0002.47,0003.08,0002.24
2021-10-11 03:57:00,,0822.4,5.00,0.00,29.6,28.5,00.0,38.8,31.3,09.3,0000.0,0002.48,0003.08,0002.25
2021-10-11 03:58:00,,0822.4,4.99,0.00,29.6,28.6,00.0,38.8,31.3,09.2,0000.0,0002.48,0003.13,0002.24
2021-10-11 03:59:00,,0822.4,4.99,0.00,29.6,28.6,00.0,38.8,31.3,09.2,0000.0,0002.46,0003.08,0002.22
